WJA1863 PHNL-CYVR

Flight info

Callsign WJA1863
Flight time N/A
Altitude 33000
Route MKK5 APACK R463 AUNTI A332 HALLI DCT 34N145W DCT ZAGER/N0467F350 DCT 42N135W DCT SHARI DCT PEKAA SHARK4
Aircraft B738/M-SDE2E3FGHIRWXY/LB1

Departure

Time 2026-05-01 12:31
Airport Daniel K. Inouye International Airport (PHNL)

Arrival

Time N/A
Airport Vancouver International Airport (CYVR)
Time Latitude Longitude Altitude Speed Heading
2026-05-01 11:52 21.33142 -157.92191 43 ft 0 kts
2026-05-01 12:13 21.33141 -157.92191 43 ft 0 kts
2026-05-01 12:14 21.33131 -157.92192 43 ft 2 kts
2026-05-01 12:14 21.33116 -157.92194 43 ft 2 kts
2026-05-01 12:14 21.33101 -157.92197 42 ft 2 kts
2026-05-01 12:14 21.33086 -157.92200 41 ft 2 kts
2026-05-01 12:15 21.33072 -157.92201 41 ft 2 kts
2026-05-01 12:15 21.33057 -157.92204 40 ft 2 kts
2026-05-01 12:15 21.33042 -157.92207 40 ft 2 kts
2026-05-01 12:15 21.33027 -157.92209 40 ft 2 kts
2026-05-01 12:16 21.33012 -157.92212 39 ft 2 kts
2026-05-01 12:16 21.32997 -157.92215 39 ft 2 kts
2026-05-01 12:16 21.32982 -157.92217 39 ft 2 kts
2026-05-01 12:16 21.32967 -157.92219 39 ft 2 kts
2026-05-01 12:17 21.32953 -157.92223 38 ft 2 kts 10°
2026-05-01 12:17 21.32937 -157.92224 38 ft 2 kts
2026-05-01 12:17 21.32923 -157.92227 38 ft 2 kts
2026-05-01 12:17 21.32908 -157.92230 37 ft 2 kts
2026-05-01 12:18 21.32893 -157.92233 37 ft 2 kts
2026-05-01 12:18 21.32878 -157.92235 37 ft 2 kts
2026-05-01 12:18 21.32863 -157.92238 37 ft 2 kts
2026-05-01 12:18 21.32848 -157.92241 37 ft 2 kts
2026-05-01 12:19 21.32834 -157.92242 37 ft 1 kts
2026-05-01 12:19 21.32824 -157.92246 37 ft 2 kts
2026-05-01 12:19 21.32809 -157.92242 37 ft 2 kts 342°
2026-05-01 12:19 21.32795 -157.92236 36 ft 2 kts 324°
2026-05-01 12:20 21.32784 -157.92226 36 ft 2 kts 307°
2026-05-01 12:20 21.32777 -157.92210 35 ft 2 kts 289°
2026-05-01 12:20 21.32774 -157.92197 35 ft 1 kts 273°
2026-05-01 12:20 21.32774 -157.92189 35 ft 1 kts 269°
2026-05-01 12:21 21.32774 -157.92188 35 ft 0 kts 269°
2026-05-01 12:23 21.32774 -157.92189 35 ft 0 kts 269°
2026-05-01 12:23 21.32774 -157.92221 35 ft 6 kts 270°
2026-05-01 12:24 21.32774 -157.92281 37 ft 8 kts 270°
2026-05-01 12:24 21.32774 -157.92328 37 ft 4 kts 270°
2026-05-01 12:24 21.32774 -157.92362 38 ft 5 kts 270°
2026-05-01 12:24 21.32774 -157.92404 38 ft 6 kts 270°
2026-05-01 12:25 21.32774 -157.92453 38 ft 7 kts 269°
2026-05-01 12:25 21.32774 -157.92577 36 ft 8 kts 270°
2026-05-01 12:25 21.32774 -157.92647 35 ft 9 kts 270°
2026-05-01 12:26 21.32771 -157.92719 35 ft 10 kts 252°
2026-05-01 12:26 21.32741 -157.92883 32 ft 13 kts 270°
2026-05-01 12:26 21.32741 -157.92989 30 ft 15 kts 269°
2026-05-01 12:27 21.32741 -157.93103 30 ft 14 kts 270°
2026-05-01 12:27 21.32742 -157.93337 29 ft 16 kts 269°
2026-05-01 12:28 21.32741 -157.93564 30 ft 14 kts 270°
2026-05-01 12:28 21.32742 -157.93666 31 ft 12 kts 270°
2026-05-01 12:28 21.32742 -157.93898 31 ft 16 kts 270°
2026-05-01 12:29 21.32742 -157.94023 30 ft 18 kts 270°
2026-05-01 12:29 21.32742 -157.94167 29 ft 18 kts 270°
2026-05-01 12:29 21.32659 -157.94324 29 ft 12 kts 180°
2026-05-01 12:30 21.32532 -157.94304 29 ft 6 kts 116°
2026-05-01 12:30 21.32525 -157.94241 29 ft 13 kts 90°
2026-05-01 12:30 21.32526 -157.93922 28 ft 79 kts 90°
2026-05-01 12:31 21.32524 -157.93085 27 ft 145 kts 89°
2026-05-01 12:31 21.32521 -157.91794 142 ft 191 kts 89°
2026-05-01 12:31 21.32448 -157.90468 1259 ft 176 kts 100°
2026-05-01 12:31 21.31866 -157.89357 2157 ft 181 kts 130°
2026-05-01 12:32 21.30729 -157.88701 2907 ft 195 kts 153°
2026-05-01 12:32 21.27986 -157.88103 4265 ft 217 kts 165°
2026-05-01 12:32 21.26445 -157.87840 4863 ft 232 kts 164°
2026-05-01 12:33 21.24820 -157.87546 5565 ft 241 kts 164°
2026-05-01 12:33 21.23262 -157.86951 6319 ft 239 kts 141°
2026-05-01 12:33 21.21984 -157.85757 6948 ft 247 kts 130°
2026-05-01 12:33 21.20801 -157.84422 7630 ft 253 kts 129°
2026-05-01 12:34 21.19577 -157.83000 8113 ft 263 kts 129°
2026-05-01 12:34 21.18488 -157.81430 8690 ft 264 kts 112°
2026-05-01 12:34 21.18023 -157.79507 9072 ft 275 kts 93°
2026-05-01 12:34 21.17913 -157.77426 9530 ft 285 kts 91°
2026-05-01 12:35 21.17789 -157.75317 10129 ft 290 kts 92°
2026-05-01 12:35 21.17641 -157.73093 10500 ft 304 kts 92°
2026-05-01 12:35 21.17487 -157.70798 10817 ft 319 kts 92°
2026-05-01 12:35 21.17324 -157.68367 11114 ft 334 kts 92°
2026-05-01 12:36 21.17154 -157.65837 11410 ft 349 kts 92°
2026-05-01 12:36 21.16977 -157.63193 11647 ft 365 kts 92°
2026-05-01 12:36 21.16792 -157.60443 11885 ft 379 kts 92°
2026-05-01 12:36 21.16600 -157.57588 12086 ft 394 kts 92°
2026-05-01 12:37 21.16398 -157.54581 12322 ft 406 kts 92°
2026-05-01 12:37 21.16196 -157.51587 12833 ft 410 kts 92°
2026-05-01 12:37 21.15988 -157.48528 13340 ft 414 kts 92°
2026-05-01 12:37 21.15779 -157.45442 13852 ft 417 kts 92°
2026-05-01 12:38 21.15566 -157.42317 14398 ft 420 kts 92°
2026-05-01 12:38 21.15353 -157.39194 14917 ft 423 kts 92°
2026-05-01 12:38 21.15141 -157.36075 15406 ft 426 kts 92°
2026-05-01 12:38 21.14924 -157.32895 15938 ft 428 kts 92°
2026-05-01 12:39 21.14767 -157.29691 16404 ft 430 kts 88°
2026-05-01 12:39 21.14954 -157.26521 16849 ft 431 kts 78°
2026-05-01 12:39 21.15791 -157.23433 17338 ft 429 kts 65°
2026-05-01 12:39 21.17211 -157.20642 17781 ft 429 kts 55°
2026-05-01 12:40 21.19033 -157.18071 18273 ft 429 kts 48°
2026-05-01 12:40 21.21172 -157.15839 18745 ft 429 kts 37°
2026-05-01 12:40 21.23729 -157.14162 19206 ft 429 kts 25°
2026-05-01 12:40 21.26518 -157.13014 19683 ft 430 kts 18°
2026-05-01 12:41 21.29405 -157.12089 20123 ft 432 kts 15°
2026-05-01 12:41 21.32300 -157.11263 20611 ft 433 kts 14°
2026-05-01 12:41 21.35259 -157.10455 21058 ft 434 kts 14°
2026-05-01 12:41 21.38185 -157.09662 21544 ft 435 kts 14°
2026-05-01 12:42 21.41141 -157.08855 21937 ft 437 kts 14°
2026-05-01 12:42 21.44109 -157.08032 22365 ft 439 kts 14°
2026-05-01 12:42 21.47094 -157.07194 22754 ft 441 kts 14°
2026-05-01 12:42 21.50039 -157.06361 23139 ft 444 kts 14°
2026-05-01 12:43 21.53073 -157.05499 23515 ft 446 kts 14°
2026-05-01 12:43 21.56072 -157.04643 23898 ft 448 kts 15°
2026-05-01 12:43 21.59091 -157.03778 24303 ft 450 kts 14°
2026-05-01 12:43 21.62117 -157.02908 24872 ft 447 kts 14°
2026-05-01 12:44 21.65137 -157.02039 25498 ft 443 kts 14°
2026-05-01 12:44 21.68094 -157.01187 26036 ft 441 kts 14°
2026-05-01 12:44 21.74058 -156.99468 26965 ft 440 kts 14°
2026-05-01 12:45 21.79985 -156.97755 27891 ft 438 kts 14°
2026-05-01 12:45 21.82890 -156.96918 28351 ft 437 kts 14°
2026-05-01 12:45 21.85830 -156.96068 28755 ft 436 kts 14°
2026-05-01 12:46 21.88767 -156.95219 29195 ft 435 kts 14°
2026-05-01 12:46 21.91717 -156.94369 29584 ft 435 kts 14°
2026-05-01 12:46 21.94626 -156.93530 30010 ft 433 kts 14°
2026-05-01 12:46 21.97537 -156.92690 30420 ft 432 kts 14°
2026-05-01 12:47 22.00439 -156.91850 30858 ft 430 kts 14°
2026-05-01 12:47 22.03339 -156.91013 31250 ft 429 kts 14°
2026-05-01 12:47 22.06247 -156.90170 31574 ft 428 kts 14°
2026-05-01 12:47 22.09100 -156.89345 31882 ft 428 kts 14°
2026-05-01 12:48 22.11988 -156.88509 32271 ft 427 kts 14°
2026-05-01 12:48 22.14868 -156.87676 32598 ft 426 kts 14°
2026-05-01 12:48 22.17744 -156.86842 32916 ft 426 kts 14°
2026-05-01 12:48 22.20660 -156.85994 33089 ft 427 kts 14°
2026-05-01 12:49 22.26423 -156.84320 33093 ft 425 kts 14°
2026-05-01 12:49 22.32151 -156.82663 33098 ft 424 kts 14°
2026-05-01 12:50 22.37897 -156.80997 33099 ft 425 kts 14°
2026-05-01 12:50 22.43624 -156.79334 33098 ft 425 kts 14°
2026-05-01 12:51 22.49363 -156.77660 33100 ft 425 kts 14°
2026-05-01 12:52 22.57954 -156.75127 33103 ft 428 kts 15°
2026-05-01 12:52 22.66559 -156.72586 33107 ft 422 kts 15°
2026-05-01 12:53 22.75131 -156.70053 33108 ft 425 kts 15°
2026-05-01 12:54 22.80907 -156.68355 33113 ft 425 kts 15°
2026-05-01 12:54 22.89457 -156.65860 33109 ft 422 kts 15°
2026-05-01 12:55 22.98044 -156.63353 33112 ft 423 kts 15°
2026-05-01 12:56 23.03741 -156.61685 33116 ft 423 kts 15°
2026-05-01 12:56 23.09425 -156.60019 33122 ft 423 kts 15°
2026-05-01 12:57 23.15149 -156.58340 33125 ft 422 kts 15°
2026-05-01 12:57 23.23676 -156.55835 33130 ft 422 kts 15°
2026-05-01 12:58 23.29379 -156.54160 33128 ft 423 kts 15°
2026-05-01 12:59 23.37945 -156.51639 33132 ft 423 kts 15°
2026-05-01 12:59 23.46484 -156.49124 33139 ft 422 kts 15°
2026-05-01 13:00 23.55016 -156.46606 33140 ft 422 kts 15°
2026-05-01 13:01 23.63564 -156.44081 33141 ft 422 kts 15°
2026-05-01 13:02 23.72154 -156.41539 33145 ft 425 kts 15°
2026-05-01 13:07 24.21369 -156.05769 33158 ft 428 kts 52°
2026-05-01 13:07 24.23107 -156.03056 33160 ft 428 kts 52°
2026-05-01 13:08 24.26527 -155.97731 33157 ft 427 kts 52°
2026-05-01 13:08 24.29942 -155.92419 33154 ft 427 kts 52°
2026-05-01 13:09 24.33362 -155.87094 33153 ft 427 kts 52°
2026-05-01 13:09 24.36788 -155.81760 33153 ft 427 kts 52°
2026-05-01 13:10 24.40227 -155.76398 33153 ft 427 kts 52°
2026-05-01 13:10 24.43630 -155.71088 33153 ft 426 kts 52°
2026-05-01 13:11 24.47028 -155.65779 33153 ft 426 kts 52°
2026-05-01 13:11 24.50445 -155.60437 33153 ft 426 kts 52°
2026-05-01 13:12 24.53851 -155.55104 33154 ft 427 kts 52°
2026-05-01 13:12 24.57254 -155.49770 33153 ft 425 kts 52°
2026-05-01 13:13 24.60635 -155.44461 33153 ft 424 kts 52°
2026-05-01 13:13 24.64037 -155.39117 33153 ft 426 kts 52°
2026-05-01 13:14 24.67452 -155.33748 33153 ft 426 kts 52°
2026-05-01 13:14 24.70867 -155.28415 33152 ft 426 kts 51°
2026-05-01 13:15 24.74710 -155.23485 33153 ft 426 kts 44°
2026-05-01 13:15 24.78915 -155.18860 33152 ft 425 kts 43°
2026-05-01 13:16 24.83159 -155.14346 33153 ft 422 kts 42°
2026-05-01 13:16 24.87398 -155.09822 33153 ft 422 kts 43°
2026-05-01 13:17 24.95764 -155.00798 33153 ft 420 kts 43°
2026-05-01 13:18 25.02055 -154.93974 33164 ft 422 kts 43°
2026-05-01 13:18 25.06227 -154.89439 33174 ft 422 kts 43°
2026-05-01 13:19 25.10397 -154.84901 33177 ft 421 kts 43°
2026-05-01 13:20 25.16647 -154.78091 33178 ft 420 kts 43°
2026-05-01 13:20 25.20802 -154.73558 33176 ft 423 kts 43°
2026-05-01 13:21 25.27078 -154.66702 33180 ft 420 kts 43°
2026-05-01 13:21 25.31219 -154.62174 33181 ft 420 kts 43°
2026-05-01 13:22 25.35369 -154.57628 33182 ft 419 kts 43°
2026-05-01 13:22 25.39552 -154.53044 33186 ft 419 kts 43°
2026-05-01 13:23 25.43691 -154.48502 33184 ft 418 kts 43°
2026-05-01 13:23 25.47830 -154.43957 33186 ft 417 kts 43°
2026-05-01 13:24 25.51966 -154.39414 33184 ft 419 kts 43°
2026-05-01 13:25 25.58174 -154.32579 33185 ft 418 kts 43°
2026-05-01 13:25 25.62282 -154.28053 33186 ft 417 kts 43°
2026-05-01 13:26 25.66395 -154.23514 33190 ft 420 kts 43°
2026-05-01 13:26 25.70508 -154.18971 33188 ft 415 kts 43°
2026-05-01 13:27 25.74617 -154.14429 33190 ft 417 kts 43°
2026-05-01 13:27 25.80760 -154.07629 33190 ft 416 kts 43°
2026-05-01 13:28 25.86893 -154.00830 33194 ft 414 kts 43°
2026-05-01 13:29 25.95047 -153.91774 33194 ft 414 kts 43°
2026-05-01 13:31 26.07284 -153.78146 33202 ft 414 kts 43°
2026-05-01 13:32 26.17467 -153.66774 33214 ft 413 kts 44°
2026-05-01 13:33 26.27593 -153.55438 33215 ft 414 kts 43°
2026-05-01 13:34 26.35687 -153.46352 33215 ft 412 kts 44°
2026-05-01 13:35 26.41762 -153.39522 33216 ft 413 kts 44°
2026-05-01 13:36 26.47826 -153.32693 33214 ft 413 kts 44°
2026-05-01 13:36 26.53868 -153.25879 33216 ft 413 kts 44°
2026-05-01 13:37 26.57886 -153.21341 33217 ft 411 kts 44°
2026-05-01 13:37 26.61940 -153.16757 33216 ft 413 kts 44°
2026-05-01 13:38 26.67957 -153.09946 33215 ft 412 kts 44°
2026-05-01 13:39 26.71983 -153.05380 33214 ft 411 kts 44°
2026-05-01 13:39 26.76014 -153.00806 33217 ft 410 kts 44°
2026-05-01 13:40 26.80007 -152.96271 33214 ft 410 kts 44°
2026-05-01 13:40 26.84031 -152.91693 33214 ft 411 kts 44°
2026-05-01 13:41 26.88042 -152.87128 33212 ft 410 kts 44°
2026-05-01 13:41 26.92040 -152.82571 33213 ft 410 kts 44°
2026-05-01 13:42 26.96051 -152.77994 33217 ft 410 kts 44°
2026-05-01 13:42 27.00040 -152.73436 33219 ft 409 kts 44°
2026-05-01 13:43 27.04043 -152.68861 33226 ft 410 kts 44°
2026-05-01 13:43 27.08014 -152.64316 33236 ft 409 kts 44°
2026-05-01 13:44 27.12024 -152.59721 33236 ft 409 kts 44°
2026-05-01 13:44 27.15997 -152.55162 33236 ft 409 kts 44°
2026-05-01 13:45 27.19978 -152.50592 33235 ft 409 kts 44°
2026-05-01 13:45 27.23982 -152.45990 33236 ft 412 kts 44°
2026-05-01 13:46 27.27988 -152.41380 33235 ft 410 kts 44°
2026-05-01 13:46 27.31965 -152.36798 33235 ft 412 kts 44°
2026-05-01 13:47 27.35935 -152.32219 33235 ft 409 kts 45°
2026-05-01 13:47 27.39917 -152.27620 33236 ft 409 kts 45°
2026-05-01 13:48 27.43889 -152.23027 33235 ft 408 kts 45°
2026-05-01 13:48 27.47847 -152.18446 33235 ft 409 kts 45°
2026-05-01 13:49 27.51800 -152.13867 33239 ft 407 kts 45°
2026-05-01 13:49 27.55737 -152.09302 33244 ft 407 kts 45°
2026-05-01 13:50 27.59670 -152.04736 33250 ft 408 kts 45°
2026-05-01 13:50 27.63643 -152.00120 33250 ft 408 kts 45°
2026-05-01 13:51 27.67599 -151.95517 33250 ft 408 kts 45°
2026-05-01 13:51 27.71562 -151.90901 33249 ft 407 kts 45°
2026-05-01 13:52 27.75505 -151.86304 33252 ft 408 kts 45°
2026-05-01 13:52 27.79439 -151.81709 33251 ft 407 kts 45°
2026-05-01 13:53 27.83388 -151.77095 33256 ft 408 kts 45°
2026-05-01 13:53 27.89289 -151.70190 33253 ft 408 kts 45°
2026-05-01 13:54 27.93215 -151.65590 33256 ft 407 kts 45°
2026-05-01 13:54 27.97155 -151.60967 33255 ft 407 kts 45°
2026-05-01 13:55 28.01073 -151.56364 33261 ft 408 kts 45°
2026-05-01 13:55 28.05015 -151.51729 33259 ft 408 kts 45°
2026-05-01 13:56 28.08938 -151.47111 33256 ft 406 kts 45°
2026-05-01 13:56 28.12834 -151.42520 33258 ft 407 kts 45°
2026-05-01 13:57 28.16762 -151.37886 33260 ft 406 kts 45°
2026-05-01 13:57 28.20681 -151.33255 33255 ft 407 kts 46°
2026-05-01 13:58 28.24590 -151.28632 33262 ft 407 kts 46°
2026-05-01 13:58 28.28495 -151.24010 33260 ft 406 kts 46°
2026-05-01 13:59 28.32412 -151.19365 33262 ft 406 kts 46°
2026-05-01 13:59 28.36336 -151.14711 33262 ft 405 kts 46°
2026-05-01 14:00 28.40225 -151.10091 33261 ft 406 kts 46°
2026-05-01 14:00 28.44126 -151.05452 33267 ft 405 kts 46°
2026-05-01 14:01 28.48018 -151.00819 33267 ft 405 kts 46°
2026-05-01 14:01 28.51907 -150.96184 33265 ft 405 kts 46°
2026-05-01 14:02 28.55787 -150.91556 33269 ft 405 kts 46°
2026-05-01 14:02 28.59698 -150.86882 33271 ft 405 kts 46°
2026-05-01 14:03 28.63574 -150.82248 33271 ft 404 kts 46°
2026-05-01 14:03 28.67453 -150.77602 33270 ft 405 kts 46°
2026-05-01 14:04 28.71322 -150.72965 33269 ft 404 kts 46°
2026-05-01 14:04 28.75200 -150.68311 33273 ft 404 kts 46°
2026-05-01 14:05 28.79060 -150.63672 33274 ft 405 kts 46°
2026-05-01 14:05 28.82962 -150.58978 33274 ft 404 kts 46°
2026-05-01 14:06 28.86807 -150.54346 33276 ft 405 kts 46°
2026-05-01 14:06 28.90705 -150.49646 33274 ft 404 kts 46°
2026-05-01 14:07 28.94575 -150.44974 33277 ft 404 kts 46°
2026-05-01 14:08 29.00365 -150.37975 33276 ft 404 kts 46°
2026-05-01 14:08 29.04243 -150.33283 33274 ft 404 kts 46°
2026-05-01 14:09 29.08100 -150.28609 33278 ft 404 kts 46°
2026-05-01 14:09 29.11953 -150.23933 33281 ft 404 kts 46°
2026-05-01 14:10 29.15817 -150.19238 33284 ft 404 kts 46°
2026-05-01 14:10 29.19671 -150.14551 33294 ft 403 kts 46°
2026-05-01 14:11 29.23497 -150.09889 33297 ft 404 kts 46°
2026-05-01 14:11 29.29278 -150.02840 33296 ft 404 kts 46°
2026-05-01 14:12 29.33113 -149.98155 33300 ft 403 kts 46°
2026-05-01 14:12 29.36962 -149.93449 33306 ft 402 kts 46°
2026-05-01 14:13 29.40826 -149.88719 33306 ft 406 kts 46°
2026-05-01 14:13 29.44681 -149.83997 33306 ft 402 kts 46°
2026-05-01 14:14 29.48497 -149.79315 33307 ft 403 kts 47°
2026-05-01 14:14 29.52326 -149.74611 33306 ft 403 kts 46°
2026-05-01 14:15 29.56140 -149.69920 33309 ft 403 kts 46°
2026-05-01 14:15 29.59968 -149.65205 33310 ft 403 kts 46°
2026-05-01 14:16 29.63806 -149.60471 33306 ft 404 kts 46°
2026-05-01 14:16 29.67618 -149.55768 33307 ft 404 kts 46°
2026-05-01 14:17 29.71448 -149.51035 33311 ft 403 kts 46°
2026-05-01 14:17 29.75259 -149.46318 33311 ft 403 kts 46°
2026-05-01 14:18 29.79095 -149.41566 33306 ft 404 kts 46°
2026-05-01 14:18 29.82918 -149.36824 33309 ft 403 kts 46°
2026-05-01 14:19 29.86717 -149.32108 33309 ft 404 kts 47°
2026-05-01 14:19 29.90545 -149.27348 33315 ft 403 kts 47°
2026-05-01 14:20 29.96276 -149.20210 33318 ft 403 kts 47°
2026-05-01 14:21 30.00075 -149.15472 33317 ft 403 kts 47°
2026-05-01 14:21 30.03905 -149.10700 33318 ft 404 kts 46°
2026-05-01 14:22 30.10096 -149.04141 33304 ft 403 kts 40°
2026-05-01 14:22 30.14458 -149.00005 33301 ft 403 kts 40°
2026-05-01 14:23 30.18790 -148.95901 33303 ft 404 kts 40°
2026-05-01 14:23 30.23151 -148.91733 33305 ft 404 kts 40°
2026-05-01 14:24 30.27469 -148.87585 33308 ft 404 kts 40°
2026-05-01 14:24 30.31801 -148.83409 33309 ft 405 kts 40°
2026-05-01 14:25 30.36133 -148.79224 33312 ft 403 kts 40°
2026-05-01 14:25 30.40479 -148.75020 33311 ft 405 kts 40°
2026-05-01 14:26 30.46949 -148.68751 33307 ft 404 kts 40°
2026-05-01 14:27 30.51250 -148.64580 33307 ft 403 kts 40°
2026-05-01 14:27 30.55543 -148.60408 33308 ft 403 kts 40°
2026-05-01 14:28 30.61987 -148.54141 33314 ft 403 kts 40°
2026-05-01 14:28 30.66281 -148.49956 33317 ft 404 kts 40°
2026-05-01 14:29 30.70582 -148.45761 33325 ft 404 kts 40°
2026-05-01 14:30 30.79199 -148.37343 33335 ft 402 kts 40°
2026-05-01 14:31 30.85628 -148.31045 33332 ft 403 kts 41°
2026-05-01 14:31 30.89909 -148.26846 33335 ft 403 kts 41°
2026-05-01 14:32 30.94193 -148.22638 33337 ft 403 kts 41°
2026-05-01 14:32 30.98470 -148.18431 33339 ft 403 kts 41°
2026-05-01 14:33 31.02764 -148.14208 33339 ft 403 kts 41°
2026-05-01 14:33 31.07024 -148.10011 33339 ft 402 kts 41°
2026-05-01 14:34 31.11306 -148.05785 33339 ft 404 kts 41°
2026-05-01 14:34 31.15593 -148.01549 33342 ft 404 kts 41°
2026-05-01 14:35 31.19863 -147.97325 33343 ft 402 kts 41°
2026-05-01 14:35 31.24134 -147.93095 33343 ft 403 kts 41°
2026-05-01 14:36 31.28431 -147.88837 33344 ft 404 kts 41°
2026-05-01 14:36 31.32718 -147.84580 33345 ft 404 kts 41°
2026-05-01 14:37 31.36991 -147.80330 33347 ft 404 kts 41°
2026-05-01 14:37 31.41262 -147.76080 33346 ft 404 kts 41°
2026-05-01 14:38 31.45551 -147.71805 33348 ft 405 kts 41°
2026-05-01 14:38 31.49830 -147.67535 33348 ft 403 kts 41°
2026-05-01 14:39 31.54087 -147.63284 33347 ft 405 kts 41°
2026-05-01 14:39 31.58387 -147.58983 33350 ft 404 kts 41°
2026-05-01 14:40 31.62653 -147.54712 33347 ft 404 kts 41°
2026-05-01 14:40 31.66940 -147.50413 33355 ft 404 kts 41°
2026-05-01 14:41 31.71210 -147.46127 33349 ft 405 kts 41°
2026-05-01 14:41 31.75460 -147.41855 33355 ft 404 kts 40°
2026-05-01 14:42 31.79750 -147.37537 33351 ft 406 kts 41°
2026-05-01 14:42 31.84048 -147.33208 33352 ft 405 kts 41°
2026-05-01 14:43 31.88323 -147.28893 33347 ft 408 kts 41°
2026-05-01 14:43 31.92609 -147.24559 33337 ft 405 kts 41°
2026-05-01 14:44 31.96868 -147.20253 33334 ft 403 kts 41°
2026-05-01 14:44 32.03291 -147.13747 33340 ft 405 kts 41°
2026-05-01 14:45 32.09676 -147.07265 33341 ft 405 kts 41°
2026-05-01 14:46 32.13953 -147.02918 33341 ft 404 kts 41°
2026-05-01 14:46 32.20346 -146.96403 33348 ft 405 kts 41°
2026-05-01 14:47 32.24601 -146.92064 33355 ft 405 kts 41°
2026-05-01 14:48 32.31021 -146.85506 33358 ft 405 kts 41°
2026-05-01 14:48 32.37425 -146.78950 33369 ft 406 kts 41°
2026-05-01 14:49 32.45963 -146.70190 33368 ft 406 kts 41°
2026-05-01 14:50 32.54534 -146.61372 33369 ft 407 kts 41°
2026-05-01 14:51 32.60935 -146.54774 33367 ft 408 kts 40°
2026-05-01 14:52 32.67323 -146.48172 33368 ft 407 kts 41°
2026-05-01 14:53 32.73734 -146.41539 33374 ft 407 kts 40°
2026-05-01 14:53 32.78009 -146.37108 33377 ft 407 kts 40°
2026-05-01 14:54 32.82268 -146.32686 33379 ft 408 kts 41°
2026-05-01 14:54 32.86533 -146.28250 33378 ft 406 kts 41°
2026-05-01 14:55 32.90787 -146.23822 33378 ft 407 kts 41°
2026-05-01 14:55 32.95050 -146.19382 33376 ft 407 kts 41°
2026-05-01 14:56 32.99309 -146.14935 33380 ft 406 kts 41°
2026-05-01 14:56 33.03534 -146.10519 33384 ft 407 kts 41°
2026-05-01 14:57 33.07801 -146.06055 33381 ft 406 kts 41°
2026-05-01 14:57 33.14200 -145.99347 33377 ft 406 kts 41°
2026-05-01 14:58 33.18407 -145.94928 33370 ft 406 kts 41°
2026-05-01 14:58 33.22646 -145.90471 33366 ft 407 kts 41°
2026-05-01 14:59 33.26894 -145.86002 33365 ft 408 kts 41°
2026-05-01 14:59 33.31138 -145.81529 33365 ft 407 kts 41°
2026-05-01 15:00 33.37510 -145.74799 33367 ft 407 kts 41°
2026-05-01 15:01 33.41777 -145.70282 33368 ft 408 kts 41°
2026-05-01 15:01 33.46032 -145.65776 33366 ft 408 kts 41°
2026-05-01 15:02 33.50250 -145.61304 33369 ft 408 kts 41°
2026-05-01 15:02 33.54503 -145.56784 33372 ft 409 kts 40°
2026-05-01 15:03 33.58772 -145.52246 33383 ft 409 kts 41°
2026-05-01 15:03 33.63032 -145.47711 33393 ft 412 kts 40°
2026-05-01 15:04 33.67323 -145.43133 33395 ft 410 kts 40°
2026-05-01 15:04 33.71569 -145.38597 33395 ft 410 kts 40°
2026-05-01 15:05 33.75832 -145.34038 33396 ft 412 kts 41°
2026-05-01 15:05 33.80121 -145.29443 33396 ft 411 kts 41°
2026-05-01 15:06 33.84368 -145.24889 33398 ft 410 kts 41°
2026-05-01 15:06 33.88631 -145.20311 33397 ft 410 kts 40°
2026-05-01 15:07 33.92883 -145.15741 33388 ft 409 kts 41°
2026-05-01 15:07 33.97115 -145.11185 33382 ft 409 kts 41°
2026-05-01 15:08 34.01348 -145.06621 33378 ft 410 kts 40°
2026-05-01 15:08 34.05605 -145.02022 33382 ft 412 kts 40°
2026-05-01 15:09 34.09842 -144.97441 33382 ft 408 kts 40°
2026-05-01 15:09 34.14092 -144.92837 33384 ft 409 kts 40°
2026-05-01 15:10 34.18310 -144.88263 33392 ft 408 kts 41°
2026-05-01 15:10 34.24652 -144.81374 33400 ft 409 kts 40°
2026-05-01 15:11 34.30986 -144.74478 33403 ft 408 kts 40°
2026-05-01 15:12 34.35190 -144.69894 33401 ft 409 kts 40°
2026-05-01 15:12 34.41502 -144.63001 33402 ft 408 kts 40°
2026-05-01 15:14 34.52063 -144.51425 33402 ft 411 kts 40°
2026-05-01 15:14 34.58367 -144.44499 33399 ft 407 kts 40°
2026-05-01 15:15 34.66765 -144.35251 33395 ft 407 kts 40°
2026-05-01 15:16 34.75147 -144.25993 33396 ft 407 kts 41°
2026-05-01 15:18 34.85613 -144.14395 33396 ft 406 kts 40°
2026-05-01 15:19 34.93916 -144.05167 33400 ft 407 kts 41°
2026-05-01 15:19 35.00193 -143.98172 33401 ft 407 kts 40°
2026-05-01 15:20 35.06420 -143.91219 33398 ft 406 kts 40°
2026-05-01 15:21 35.10569 -143.86575 33403 ft 404 kts 40°
2026-05-01 15:21 35.14696 -143.81949 33400 ft 404 kts 40°
2026-05-01 15:22 35.20947 -143.74933 33405 ft 406 kts 40°
2026-05-01 15:22 35.25113 -143.70248 33405 ft 406 kts 40°
2026-05-01 15:23 35.29236 -143.65602 33407 ft 405 kts 40°
2026-05-01 15:23 35.33370 -143.60939 33406 ft 405 kts 40°
2026-05-01 15:24 35.37528 -143.56242 33406 ft 406 kts 40°
2026-05-01 15:24 35.41667 -143.51561 33404 ft 405 kts 40°
2026-05-01 15:25 35.45807 -143.46870 33405 ft 406 kts 40°
2026-05-01 15:25 35.49925 -143.42198 33405 ft 404 kts 40°
2026-05-01 15:26 35.54069 -143.37492 33405 ft 404 kts 40°
2026-05-01 15:26 35.58209 -143.32782 33405 ft 407 kts 40°
2026-05-01 15:27 35.62329 -143.28088 33406 ft 405 kts 40°
2026-05-01 15:28 35.68502 -143.21040 33403 ft 405 kts 40°
2026-05-01 15:28 35.72650 -143.16298 33403 ft 406 kts 40°
2026-05-01 15:29 35.78809 -143.09242 33400 ft 403 kts 40°
2026-05-01 15:30 35.87010 -142.99821 33400 ft 404 kts 40°
2026-05-01 15:31 35.99320 -142.85628 33415 ft 404 kts 40°
2026-05-01 15:32 36.07534 -142.76123 33417 ft 405 kts 40°
2026-05-01 15:34 36.19808 -142.61861 33416 ft 402 kts 40°